Starlink 34082

operational
NORAD ID: 64100 Int'l Des: 2025-110 Owner: SPXS Country: US Constellation: starlink
LEOCIRCULAR

关于 Starlink 34082

正在加载描述...

实时位置

正在加载3D地球...

即将过境

高度历史

Altitude vs Time

uPlot chart will show altitude changes over time

两行轨道根数

1 64100U 25110E 26095.17318677 .00025122 00000-0 85709-3 0 9996
2 64100 53.1578 264.0071 0001189 97.8756 262.2380 15.30213721 49936
Epoch: Apr 5, 2026 • Age: 19 hours

当前状态

高度 485.9 km
速度 7.62 km/s
星下点 -32.80°S, 55.73°E
发射日期 May 23, 2025
运行时间 0.8 years
类型 internet

技术详情

分类 Payload
质量 575.00 kg
干质量 530.00 kg
总质量 575.00 kg
长度 0.30 m
直径 4.10 m
跨度 29.00 m
形状 Box + pan
制造商 SPXS
平台类型 Starlink V2MO
阶段状态 In Orbit
所有者/国家 SPXS/US

大型星座

Loading constellations...